contact:dominique.lefevre@mio.osupytheas.fr, maurice.libes@osupytheas.fr, didier.mallarino@osupytheas.fr
Project:EMSO http://www.emso-fr.org/EMSO-France
Depth: 2436.0 m
Title:EMSO Ligure Ouest : Data MII capteur AQUADOPP
Date,Latitude,Longitude,X_East,Y_North,Z_Up,Amplitude_X,Amplitude_Y,Amplitude_Z,Batterie,SoundSpeed,Heading,Pitch,Roll,Pressure,TIS,Speed,Direction
, degrees North, degrees East, m.s-1, m.s-1,m.s-1, 1, 1, 1, Volt, m.s-1, degree, degree, degree, dbar, degree_C, m.s-1, degree
2022-01-22T00:04:03,42.805,6.029,-0.049,0.03,-0.001,104.0,103.0,102.0,13.4,1505.2,331.9,-0.8,1.8,2470.613,13.28,0.057,301.5
2022-01-22T00:07:03,42.805,6.029,-0.065,0.013,-0.006,104.0,103.0,102.0,13.4,1505.2,326.7,-0.8,1.8,2470.307,13.28,0.066,281.3
2022-01-22T00:10:03,42.805,6.029,-0.032,0.012,0.015,104.0,104.0,103.0,13.4,1505.2,331.2,-0.8,1.8,2470.416,13.28,0.034,290.6
2022-01-22T00:13:03,42.805,6.029,-0.055,0.01,0.0,104.0,104.0,101.0,13.4,1505.2,325.4,-0.7,1.8,2470.491,13.28,0.055,280.3
2022-01-22T00:16:03,42.805,6.029,-0.062,0.021,-0.003,104.0,103.0,103.0,13.4,1505.2,324.6,-0.7,1.8,2470.502,13.28,0.065,288.7
2022-01-22T00:19:03,42.805,6.029,-0.051,0.027,0.012,104.0,104.0,102.0,13.3,1505.2,327.4,-0.8,1.8,2470.526,13.28,0.057,297.9
2022-01-22T00:22:03,42.805,6.029,-0.041,0.037,0.036,103.0,103.0,102.0,13.4,1505.2,327.5,-0.8,1.8,2470.565,13.28,0.055,312.1
2022-01-22T00:25:03,42.805,6.029,-0.041,0.018,-0.021,104.0,103.0,102.0,13.4,1505.2,329.0,-0.8,1.9,2470.712,13.28,0.044,293.7
2022-01-22T00:28:03,42.805,6.029,-0.043,0.014,-0.007,104.0,104.0,102.0,13.4,1505.2,326.0,-0.8,1.8,2470.665,13.28,0.045,288.0
2022-01-22T00:31:03,42.805,6.029,-0.044,0.007,0.013,104.0,104.0,102.0,13.4,1505.2,324.9,-0.8,1.8,2470.715,13.28,0.044,279.0
2022-01-22T00:34:03,42.805,6.029,-0.051,0.03,-0.006,104.0,105.0,102.0,13.4,1505.2,324.6,-0.7,1.8,2470.729,13.28,0.059,300.5
2022-01-22T00:37:03,42.805,6.029,-0.049,0.044,0.004,105.0,104.0,102.0,13.4,1505.2,330.6,-0.7,1.8,2470.725,13.28,0.065,311.9
2022-01-22T00:40:03,42.805,6.029,-0.037,0.019,-0.026,103.0,106.0,102.0,13.4,1505.2,327.2,-0.8,1.8,2470.962,13.28,0.041,297.2
2022-01-22T00:43:03,42.805,6.029,-0.047,0.02,-0.005,103.0,105.0,102.0,13.4,1505.2,326.2,-0.7,1.8,2470.894,13.28,0.051,293.0
2022-01-22T00:46:03,42.805,6.029,-0.052,0.028,0.002,101.0,103.0,104.0,13.4,1505.2,328.2,-0.8,1.8,2471.123,13.28,0.059,298.3
2022-01-22T00:49:03,42.805,6.029,-0.059,0.031,0.025,104.0,104.0,102.0,13.4,1505.2,328.3,-0.7,1.8,2471.144,13.28,0.066,297.7
2022-01-22T00:52:03,42.805,6.029,-0.059,0.035,0.002,104.0,105.0,102.0,13.4,1505.2,324.1,-0.7,1.8,2470.906,13.28,0.068,300.7
2022-01-22T00:55:03,42.805,6.029,-0.053,0.028,0.002,104.0,104.0,102.0,13.3,1505.2,326.3,-0.8,1.8,2470.866,13.28,0.059,297.9
2022-01-22T00:58:03,42.805,6.029,-0.058,0.039,-0.022,103.0,104.0,102.0,13.4,1505.2,329.9,-0.8,1.8,2470.924,13.28,0.069,303.9
2022-01-22T01:04:03,42.805,6.029,-0.051,0.014,0.024,105.0,106.0,104.0,13.4,1505.2,325.7,-0.8,1.8,2470.811,13.28,0.052,285.3
2022-01-22T01:07:03,42.805,6.029,-0.054,0.025,-0.005,104.0,104.0,102.0,13.3,1505.2,331.7,-0.8,1.8,2470.733,13.28,0.059,294.8
2022-01-22T01:10:03,42.805,6.029,-0.035,0.027,0.029,105.0,104.0,102.0,13.4,1505.2,324.4,-0.8,1.8,2470.826,13.28,0.044,307.7
2022-01-22T01:13:03,42.805,6.029,-0.062,0.032,0.012,105.0,103.0,102.0,13.3,1505.2,330.6,-0.8,1.8,2470.537,13.28,0.069,297.3
2022-01-22T01:16:03,42.805,6.029,-0.061,0.031,0.014,105.0,104.0,102.0,13.4,1505.2,326.2,-0.7,1.8,2470.3,13.28,0.068,296.9
2022-01-22T01:19:03,42.805,6.029,-0.045,0.027,0.02,104.0,104.0,101.0,13.4,1505.2,328.0,-0.8,1.8,2470.49,13.28,0.052,301.0
2022-01-22T01:22:03,42.805,6.029,-0.07,0.031,0.009,104.0,104.0,103.0,13.4,1505.2,328.5,-0.8,1.8,2470.249,13.28,0.076,293.9
2022-01-22T01:25:03,42.805,6.029,-0.05,0.042,0.035,103.0,104.0,102.0,13.4,1505.2,324.0,-0.7,1.8,2470.269,13.28,0.065,310.0
2022-01-22T01:28:03,42.805,6.029,-0.055,0.026,-0.026,104.0,105.0,102.0,13.4,1505.2,331.1,-0.7,1.8,2470.313,13.28,0.06,295.3
2022-01-22T01:31:03,42.805,6.029,-0.056,0.016,-0.027,105.0,104.0,102.0,13.4,1505.2,327.9,-0.8,1.8,2470.515,13.28,0.058,285.9
2022-01-22T01:34:03,42.805,6.029,-0.06,0.015,-0.019,104.0,105.0,103.0,13.4,1505.2,329.0,-0.8,1.8,2470.498,13.28,0.061,284.0
2022-01-22T01:37:03,42.805,6.029,-0.053,0.017,-0.006,104.0,104.0,102.0,13.3,1505.2,329.8,-0.7,1.8,2470.68,13.28,0.055,287.8
2022-01-22T01:40:03,42.805,6.029,-0.053,0.04,0.011,104.0,105.0,103.0,13.4,1505.2,323.7,-0.8,1.8,2470.222,13.28,0.066,307.0
2022-01-22T01:43:03,42.805,6.029,-0.031,0.024,0.003,103.0,104.0,103.0,13.4,1505.2,326.1,-0.7,1.8,2470.288,13.28,0.039,307.7
2022-01-22T01:46:03,42.805,6.029,-0.042,0.011,-0.01,103.0,103.0,102.0,13.4,1505.2,326.5,-0.7,1.8,2470.277,13.28,0.043,284.7
2022-01-22T01:49:03,42.805,6.029,-0.055,0.034,0.008,103.0,104.0,103.0,13.3,1505.2,326.3,-0.8,1.8,2470.287,13.28,0.064,301.7
2022-01-22T01:52:03,42.805,6.029,-0.048,0.025,-0.001,104.0,104.0,102.0,13.4,1505.2,327.7,-0.7,1.8,2470.412,13.28,0.054,297.5
2022-01-22T01:55:03,42.805,6.029,-0.047,0.032,0.017,104.0,103.0,103.0,13.4,1505.2,329.2,-0.8,1.8,2470.433,13.28,0.056,304.2
2022-01-22T01:58:03,42.805,6.029,-0.07,0.035,0.016,104.0,103.0,102.0,13.4,1505.2,328.5,-0.8,1.8,2470.365,13.28,0.078,296.6
2022-01-22T02:04:03,42.805,6.029,-0.039,0.023,0.02,103.0,104.0,102.0,13.4,1505.2,324.3,-0.8,1.8,2470.282,13.28,0.045,300.5
2022-01-22T02:07:03,42.805,6.029,-0.056,0.011,-0.013,104.0,104.0,103.0,13.4,1505.2,325.6,-0.7,1.8,2470.282,13.28,0.057,281.1
2022-01-22T02:10:03,42.805,6.029,-0.043,0.038,0.011,103.0,105.0,102.0,13.4,1505.2,331.4,-0.8,1.8,2470.312,13.28,0.057,311.5
2022-01-22T02:13:03,42.805,6.029,-0.046,0.027,-0.003,104.0,105.0,103.0,13.4,1505.2,329.2,-0.8,1.8,2470.325,13.28,0.053,300.4
2022-01-22T02:16:03,42.805,6.029,-0.063,0.02,0.023,103.0,105.0,102.0,13.4,1505.2,330.7,-0.8,1.8,2470.283,13.28,0.066,287.6
2022-01-22T02:19:03,42.805,6.029,-0.055,0.027,-0.02,104.0,106.0,101.0,13.4,1505.2,324.3,-0.7,1.8,2470.395,13.28,0.061,296.1
2022-01-22T02:22:03,42.805,6.029,-0.055,0.049,0.009,103.0,107.0,103.0,13.3,1505.2,325.6,-0.8,1.8,2470.39,13.28,0.073,311.7
2022-01-22T02:25:03,42.805,6.029,-0.066,0.02,-0.027,104.0,103.0,103.0,13.4,1505.2,331.0,-0.7,1.9,2470.38,13.28,0.068,286.9
2022-01-22T02:28:03,42.805,6.029,-0.056,0.025,0.006,103.0,107.0,102.0,13.3,1505.2,324.3,-0.8,1.8,2470.405,13.28,0.061,294.1
2022-01-22T02:31:03,42.805,6.029,-0.042,0.022,0.009,104.0,104.0,102.0,13.4,1505.2,329.0,-0.7,1.8,2470.391,13.28,0.047,297.6
2022-01-22T02:34:03,42.805,6.029,-0.038,0.024,0.01,103.0,106.0,102.0,13.4,1505.2,326.7,-0.8,1.8,2470.412,13.28,0.044,302.3
2022-01-22T02:37:03,42.805,6.029,-0.048,0.015,-0.008,105.0,105.0,102.0,13.4,1505.2,326.4,-0.7,1.8,2470.414,13.28,0.05,287.4
2022-01-22T02:40:03,42.805,6.029,-0.066,0.028,-0.014,104.0,105.0,103.0,13.3,1505.2,326.2,-0.7,1.8,2470.471,13.28,0.071,293.0
2022-01-22T02:43:03,42.805,6.029,-0.026,0.007,0.053,104.0,105.0,103.0,13.4,1505.2,327.1,-0.8,1.8,2470.457,13.28,0.026,285.1
2022-01-22T02:46:03,42.805,6.029,-0.053,0.03,-0.011,105.0,106.0,102.0,13.4,1505.2,328.8,-0.7,1.8,2470.464,13.28,0.06,299.5
2022-01-22T02:49:03,42.805,6.029,-0.052,0.044,0.026,104.0,105.0,102.0,13.4,1505.2,329.6,-0.8,1.8,2470.437,13.28,0.068,310.2
2022-01-22T02:52:03,42.805,6.029,-0.048,0.042,0.023,105.0,103.0,103.0,13.4,1505.2,329.4,-0.8,1.8,2470.461,13.28,0.063,311.2
2022-01-22T02:55:03,42.805,6.029,-0.032,0.036,0.043,105.0,105.0,103.0,13.4,1505.2,324.7,-0.7,1.8,2470.46,13.28,0.048,318.4
2022-01-22T02:58:03,42.805,6.029,-0.054,0.035,-0.007,105.0,105.0,103.0,13.4,1505.2,331.4,-0.7,1.9,2470.433,13.28,0.064,303.0
2022-01-22T03:04:03,42.805,6.029,-0.061,0.027,0.014,110.0,106.0,104.0,13.4,1505.2,328.0,-0.8,1.9,2470.425,13.28,0.066,293.9
2022-01-22T03:07:03,42.805,6.029,-0.055,0.026,-0.014,107.0,107.0,105.0,13.3,1505.2,324.4,-0.8,1.8,2470.392,13.28,0.06,295.3
2022-01-22T03:10:03,42.805,6.029,-0.074,0.017,0.021,108.0,108.0,103.0,13.4,1505.2,323.8,-0.8,1.8,2470.373,13.28,0.075,282.9
2022-01-22T03:13:03,42.805,6.029,-0.028,0.03,0.03,106.0,106.0,104.0,13.4,1505.2,328.3,-0.7,1.8,2470.4,13.28,0.041,317.0
2022-01-22T03:16:03,42.805,6.029,-0.054,0.048,0.029,105.0,106.0,103.0,13.4,1505.2,326.9,-0.8,1.8,2470.424,13.28,0.072,311.6
2022-01-22T03:19:03,42.805,6.029,-0.069,0.013,0.022,105.0,106.0,103.0,13.3,1505.2,326.2,-0.8,1.8,2470.402,13.28,0.07,280.7
2022-01-22T03:22:03,42.805,6.029,-0.049,0.028,-0.006,107.0,105.0,104.0,13.4,1505.2,325.4,-0.7,1.8,2470.405,13.28,0.056,299.7
2022-01-22T03:25:03,42.805,6.029,-0.032,0.028,0.031,106.0,105.0,102.0,13.4,1505.2,326.2,-0.8,1.8,2470.419,13.28,0.042,311.2
2022-01-22T03:28:03,42.805,6.029,-0.048,0.034,0.029,106.0,105.0,103.0,13.4,1505.2,328.0,-0.8,1.8,2470.422,13.28,0.058,305.3
2022-01-22T03:31:03,42.805,6.029,-0.045,0.031,0.034,104.0,105.0,105.0,13.4,1505.2,329.1,-0.7,1.8,2470.458,13.29,0.054,304.6
2022-01-22T03:34:03,42.805,6.029,-0.048,0.008,-0.021,105.0,105.0,103.0,13.3,1505.2,324.4,-0.7,1.8,2470.447,13.28,0.048,279.5
2022-01-22T03:37:03,42.805,6.029,-0.051,0.006,0.004,105.0,106.0,103.0,13.4,1505.2,326.3,-0.7,1.8,2470.471,13.29,0.051,276.7
2022-01-22T03:40:03,42.805,6.029,-0.051,0.021,-0.002,105.0,105.0,103.0,13.4,1505.2,326.1,-0.7,1.8,2470.432,13.29,0.055,292.4
2022-01-22T03:43:03,42.805,6.029,-0.047,0.011,0.018,106.0,105.0,103.0,13.4,1505.2,325.8,-0.7,1.8,2470.444,13.29,0.048,283.2
2022-01-22T03:46:03,42.805,6.029,-0.064,0.017,0.0,105.0,106.0,104.0,13.4,1505.2,325.4,-0.8,1.8,2470.422,13.29,0.066,284.9
2022-01-22T03:49:03,42.805,6.029,-0.031,0.017,-0.022,106.0,104.0,104.0,13.4,1505.2,327.2,-0.8,1.8,2470.439,13.29,0.035,298.7
2022-01-22T03:52:03,42.805,6.029,-0.052,0.041,0.011,107.0,107.0,104.0,13.3,1505.2,326.8,-0.8,1.8,2470.414,13.29,0.066,308.3
2022-01-22T03:55:03,42.805,6.029,-0.056,0.022,0.017,107.0,105.0,104.0,13.3,1505.2,326.8,-0.7,1.8,2470.417,13.28,0.06,291.4
2022-01-22T03:58:03,42.805,6.029,-0.026,0.032,0.015,107.0,106.0,104.0,13.4,1505.2,329.1,-0.7,1.8,2470.436,13.29,0.041,320.9
2022-01-22T04:04:03,42.805,6.029,-0.031,0.034,0.016,105.0,105.0,104.0,13.4,1505.2,329.0,-0.7,1.8,2470.475,13.28,0.046,317.6
2022-01-22T04:07:03,42.805,6.029,-0.047,0.036,0.013,106.0,106.0,103.0,13.4,1505.2,326.4,-0.8,1.8,2470.511,13.28,0.059,307.5
2022-01-22T04:10:03,42.805,6.029,-0.044,0.032,-0.003,105.0,105.0,104.0,13.4,1505.2,328.9,-0.8,1.8,2470.427,13.28,0.054,306.0
2022-01-22T04:13:03,42.805,6.029,-0.048,0.022,0.004,105.0,106.0,103.0,13.3,1505.2,327.9,-0.8,1.8,2470.447,13.28,0.052,294.6
2022-01-22T04:16:03,42.805,6.029,-0.043,0.032,0.013,105.0,108.0,103.0,13.3,1505.2,328.7,-0.8,1.8,2470.491,13.28,0.053,306.7
2022-01-22T04:19:03,42.805,6.029,-0.058,0.023,0.001,105.0,106.0,104.0,13.3,1505.2,324.6,-0.7,1.8,2470.428,13.28,0.062,291.6
2022-01-22T04:22:03,42.805,6.029,-0.046,0.016,0.002,106.0,105.0,103.0,13.3,1505.2,327.4,-0.8,1.8,2470.434,13.28,0.048,289.2
2022-01-22T04:25:03,42.805,6.029,-0.064,0.024,-0.003,106.0,107.0,104.0,13.3,1505.2,328.7,-0.7,1.8,2470.496,13.28,0.068,290.6
2022-01-22T04:28:03,42.805,6.029,-0.053,0.042,-0.007,105.0,106.0,103.0,13.3,1505.2,327.0,-0.8,1.8,2470.471,13.28,0.067,308.4
2022-01-22T04:31:03,42.805,6.029,-0.048,0.03,0.044,104.0,105.0,103.0,13.4,1505.2,329.6,-0.8,1.9,2470.482,13.28,0.056,302.0
2022-01-22T04:34:03,42.805,6.029,-0.044,0.048,0.021,105.0,106.0,102.0,13.3,1505.2,328.9,-0.7,1.8,2470.417,13.28,0.065,317.5
2022-01-22T04:37:03,42.805,6.029,-0.038,0.025,0.03,104.0,105.0,103.0,13.3,1505.2,324.8,-0.8,1.8,2470.487,13.28,0.045,303.3
2022-01-22T04:40:03,42.805,6.029,-0.051,0.036,0.044,105.0,106.0,102.0,13.3,1505.2,327.5,-0.8,1.8,2470.447,13.28,0.062,305.2
2022-01-22T04:43:03,42.805,6.029,-0.055,0.012,0.01,105.0,105.0,104.0,13.3,1505.2,326.1,-0.7,1.8,2470.436,13.28,0.056,282.3
2022-01-22T04:46:03,42.805,6.029,-0.059,0.029,0.013,105.0,106.0,103.0,13.4,1505.2,328.3,-0.8,1.8,2470.473,13.29,0.065,296.2
2022-01-22T04:49:03,42.805,6.029,-0.054,0.04,0.024,104.0,107.0,102.0,13.4,1505.2,329.7,-0.7,1.8,2470.459,13.28,0.067,306.5
2022-01-22T04:52:03,42.805,6.029,-0.04,0.019,0.021,105.0,106.0,102.0,13.4,1505.2,329.9,-0.8,1.8,2470.498,13.28,0.044,295.4
2022-01-22T04:55:03,42.805,6.029,-0.047,0.006,0.005,104.0,104.0,102.0,13.4,1505.2,329.4,-0.7,1.8,2470.494,13.28,0.047,277.3
2022-01-22T04:58:03,42.805,6.029,-0.069,0.027,-0.005,104.0,104.0,102.0,13.4,1505.2,329.5,-0.8,1.8,2470.485,13.28,0.074,291.4
2022-01-22T05:04:03,42.805,6.029,-0.049,0.006,-0.008,104.0,103.0,103.0,13.4,1505.2,323.9,-0.8,1.8,2470.512,13.28,0.049,277.0
2022-01-22T05:07:03,42.805,6.029,-0.067,0.02,0.035,103.0,104.0,102.0,13.4,1505.2,325.2,-0.8,1.8,2470.516,13.28,0.069,286.6
2022-01-22T05:10:03,42.805,6.029,-0.075,0.051,0.011,102.0,105.0,102.0,13.3,1505.2,330.1,-0.8,1.8,2470.484,13.28,0.09,304.2
2022-01-22T05:13:03,42.805,6.029,-0.036,0.054,0.004,104.0,104.0,102.0,13.4,1505.2,329.6,-0.8,1.8,2470.515,13.28,0.064,326.3
2022-01-22T05:16:03,42.805,6.029,-0.038,0.013,-0.035,104.0,104.0,102.0,13.4,1505.2,329.0,-0.7,1.8,2470.53,13.28,0.04,288.9
2022-01-22T05:19:03,42.805,6.029,-0.033,0.012,0.011,103.0,105.0,101.0,13.4,1505.2,326.6,-0.8,1.8,2470.57,13.28,0.035,290.0
2022-01-22T05:22:03,42.805,6.029,-0.042,0.012,0.016,102.0,105.0,102.0,13.4,1505.2,325.6,-0.8,1.8,2470.509,13.28,0.043,285.9
2022-01-22T05:25:03,42.805,6.029,-0.067,0.008,-0.006,102.0,105.0,102.0,13.3,1505.2,324.8,-0.8,1.8,2470.545,13.28,0.067,276.8
2022-01-22T05:28:03,42.805,6.029,-0.057,0.019,0.0,101.0,103.0,103.0,13.4,1505.2,326.8,-0.8,1.8,2470.531,13.28,0.06,288.4
2022-01-22T05:31:03,42.805,6.029,-0.015,0.017,0.013,102.0,104.0,102.0,13.4,1505.2,328.9,-0.7,1.8,2470.518,13.28,0.022,318.6
2022-01-22T05:34:03,42.805,6.029,-0.053,0.024,-0.005,102.0,104.0,101.0,13.4,1505.2,325.5,-0.8,1.8,2470.547,13.29,0.058,294.4
2022-01-22T05:37:03,42.805,6.029,-0.052,0.042,0.029,104.0,104.0,102.0,13.4,1505.2,328.0,-0.8,1.8,2470.492,13.28,0.066,308.9
2022-01-22T05:40:03,42.805,6.029,-0.049,0.009,0.024,103.0,103.0,102.0,13.4,1505.2,328.9,-0.8,1.8,2470.496,13.28,0.049,280.4
2022-01-22T05:43:03,42.805,6.029,-0.053,0.026,-0.007,103.0,104.0,102.0,13.3,1505.2,323.5,-0.8,1.9,2470.511,13.28,0.059,296.1
2022-01-22T05:46:03,42.805,6.029,-0.058,0.029,0.003,102.0,104.0,101.0,13.4,1505.2,326.3,-0.8,1.8,2470.535,13.28,0.064,296.6
2022-01-22T05:49:03,42.805,6.029,-0.058,0.034,0.022,102.0,104.0,102.0,13.3,1505.2,325.3,-0.8,1.8,2470.508,13.28,0.067,300.4
2022-01-22T05:52:03,42.805,6.029,-0.05,0.023,0.015,104.0,102.0,102.0,13.4,1505.2,330.3,-0.7,1.8,2470.486,13.28,0.055,294.7
2022-01-22T05:55:03,42.805,6.029,-0.036,0.025,0.018,102.0,103.0,102.0,13.4,1505.2,328.7,-0.8,1.8,2470.538,13.28,0.043,304.8
2022-01-22T05:58:03,42.805,6.029,-0.049,0.034,0.033,103.0,104.0,101.0,13.4,1505.2,327.2,-0.7,1.8,2470.512,13.29,0.059,304.8
2022-01-22T06:04:03,42.805,6.029,-0.064,0.015,-0.031,104.0,103.0,101.0,13.4,1505.2,328.7,-0.8,1.8,2470.564,13.28,0.065,283.2
2022-01-22T06:07:03,42.805,6.029,-0.054,0.028,0.001,103.0,102.0,102.0,13.3,1505.2,331.2,-0.8,1.8,2470.557,13.28,0.06,297.4
2022-01-22T06:10:03,42.805,6.029,-0.035,0.012,-0.001,102.0,102.0,101.0,13.4,1505.2,325.2,-0.7,1.8,2470.566,13.28,0.037,288.9
2022-01-22T06:13:03,42.805,6.029,-0.047,0.015,0.012,100.0,103.0,101.0,13.4,1505.2,324.0,-0.8,1.8,2470.519,13.28,0.049,287.7
2022-01-22T06:16:03,42.805,6.029,-0.092,0.029,0.013,102.0,103.0,101.0,13.4,1505.2,327.0,-0.7,1.8,2470.538,13.28,0.096,287.5
2022-01-22T06:19:03,42.805,6.029,-0.051,0.013,0.015,103.0,103.0,101.0,13.4,1505.2,327.1,-0.7,1.8,2470.542,13.28,0.052,284.3
2022-01-22T06:22:03,42.805,6.029,-0.037,0.033,0.018,103.0,104.0,101.0,13.4,1505.2,329.8,-0.8,1.8,2470.56,13.28,0.049,311.7
2022-01-22T06:25:03,42.805,6.029,-0.066,0.022,-0.011,102.0,103.0,101.0,13.3,1505.2,324.1,-0.7,1.8,2470.549,13.28,0.069,288.4
2022-01-22T06:28:03,42.805,6.029,-0.059,0.025,0.019,102.0,103.0,102.0,13.4,1505.2,327.4,-0.7,1.8,2470.569,13.28,0.064,293.0
2022-01-22T06:31:03,42.805,6.029,-0.033,0.034,0.021,103.0,101.0,102.0,13.4,1505.2,331.9,-0.8,1.8,2470.591,13.28,0.047,315.9
2022-01-22T06:34:03,42.805,6.029,-0.033,0.025,-0.003,103.0,103.0,100.0,13.4,1505.2,329.1,-0.7,1.9,2470.557,13.28,0.041,307.1
2022-01-22T06:37:03,42.805,6.029,-0.076,0.009,-0.003,102.0,102.0,101.0,13.4,1505.2,325.0,-0.7,1.9,2470.539,13.28,0.076,276.8
2022-01-22T06:40:03,42.805,6.029,-0.058,0.032,0.006,101.0,104.0,100.0,13.4,1505.2,326.8,-0.8,1.8,2470.592,13.28,0.066,298.9
2022-01-22T06:43:03,42.805,6.029,-0.032,0.023,-0.001,102.0,104.0,101.0,13.4,1505.2,330.7,-0.8,1.8,2470.596,13.28,0.039,305.7
2022-01-22T06:46:03,42.805,6.029,-0.047,0.021,-0.017,101.0,103.0,101.0,13.4,1505.2,327.2,-0.8,1.8,2470.844,13.28,0.051,294.1
2022-01-22T06:49:03,42.805,6.029,-0.058,0.011,0.0,101.0,102.0,100.0,13.4,1505.2,325.8,-0.8,1.9,2471.159,13.28,0.059,280.7
2022-01-22T06:52:03,42.805,6.029,-0.023,0.015,-0.01,102.0,102.0,101.0,13.4,1505.2,327.5,-0.8,1.8,2471.718,13.28,0.027,303.1
2022-01-22T06:55:03,42.805,6.029,-0.043,0.011,0.006,102.0,102.0,100.0,13.3,1505.2,329.6,-0.8,1.8,2471.775,13.29,0.044,284.3
2022-01-22T06:58:03,42.805,6.029,-0.039,0.029,0.005,101.0,103.0,101.0,13.4,1505.2,327.8,-0.8,1.8,2471.947,13.29,0.048,306.6
2022-01-22T07:04:03,42.805,6.029,-0.023,-0.006,0.005,102.0,102.0,101.0,13.3,1505.2,326.3,-0.7,1.8,2470.909,13.28,0.023,255.4
2022-01-22T07:07:03,42.805,6.029,-0.038,0.0,0.0,103.0,101.0,100.0,13.4,1505.2,324.7,-0.8,1.8,2470.473,13.28,0.038,270.0
2022-01-22T07:10:03,42.805,6.029,-0.052,0.011,-0.01,103.0,101.0,101.0,13.3,1505.2,323.6,-0.8,1.8,2470.701,13.28,0.053,281.9
2022-01-22T07:13:03,42.805,6.029,-0.031,0.027,0.007,102.0,102.0,102.0,13.4,1505.2,324.6,-0.8,1.8,2470.537,13.28,0.041,311.1
2022-01-22T07:16:03,42.805,6.029,-0.052,0.003,0.0,102.0,102.0,101.0,13.4,1505.2,325.2,-0.7,1.8,2470.844,13.28,0.052,273.3
2022-01-22T07:19:03,42.805,6.029,-0.028,0.015,0.011,103.0,102.0,101.0,13.3,1505.2,324.0,-0.7,1.8,2471.071,13.28,0.031,298.2
2022-01-22T07:22:03,42.805,6.029,-0.057,0.031,0.022,103.0,103.0,101.0,13.4,1505.2,331.3,-0.8,1.8,2471.504,13.28,0.064,298.5
2022-01-22T07:25:03,42.805,6.029,-0.041,0.025,0.005,102.0,104.0,100.0,13.4,1505.2,327.5,-0.8,1.8,2471.614,13.28,0.048,301.4
2022-01-22T07:28:03,42.805,6.029,-0.05,0.016,0.014,102.0,100.0,101.0,13.3,1505.2,327.0,-0.7,1.9,2471.487,13.28,0.052,287.7
2022-01-22T07:31:03,42.805,6.029,-0.051,0.0,-0.017,102.0,102.0,102.0,13.4,1505.2,327.8,-0.8,1.8,2471.654,13.28,0.051,270.0
2022-01-22T07:34:03,42.805,6.029,-0.063,0.024,-0.018,101.0,101.0,101.0,13.4,1505.2,324.8,-0.8,1.8,2471.921,13.28,0.067,290.9
2022-01-22T07:37:03,42.805,6.029,-0.061,0.013,0.007,101.0,102.0,101.0,13.4,1505.2,324.4,-0.8,1.8,2472.096,13.28,0.062,282.0
2022-01-22T07:40:03,42.805,6.029,-0.046,0.031,0.036,102.0,102.0,100.0,13.4,1505.2,328.6,-0.8,1.8,2472.092,13.28,0.055,304.0
2022-01-22T07:43:03,42.805,6.029,-0.052,0.036,0.01,102.0,103.0,101.0,13.4,1505.2,329.1,-0.8,1.8,2471.421,13.28,0.063,304.7
2022-01-22T07:46:03,42.805,6.029,-0.032,0.026,-0.016,102.0,103.0,100.0,13.4,1505.2,331.7,-0.7,1.8,2471.223,13.28,0.041,309.1
2022-01-22T07:49:03,42.805,6.029,-0.049,0.006,-0.005,103.0,101.0,100.0,13.3,1505.2,323.8,-0.8,1.8,2470.982,13.28,0.049,277.0
2022-01-22T07:52:03,42.805,6.029,-0.053,0.026,-0.009,101.0,102.0,101.0,13.4,1505.2,325.7,-0.8,1.8,2470.881,13.28,0.059,296.1
2022-01-22T07:55:03,42.805,6.029,-0.03,0.018,-0.024,103.0,101.0,101.0,13.4,1505.2,328.3,-0.8,1.8,2470.541,13.28,0.034,301.0
2022-01-22T07:58:03,42.805,6.029,-0.046,0.013,0.005,102.0,102.0,101.0,13.4,1505.2,327.5,-0.8,1.8,2470.475,13.28,0.047,285.8
2022-01-22T08:04:03,42.805,6.029,-0.057,0.016,-0.003,102.0,102.0,101.0,13.4,1505.2,330.1,-0.8,1.8,2470.27,13.28,0.059,285.7
2022-01-22T08:07:03,42.805,6.029,-0.039,0.016,-0.016,102.0,103.0,101.0,13.3,1505.2,326.4,-0.8,1.8,2470.29,13.28,0.042,292.3
2022-01-22T08:10:03,42.805,6.029,-0.056,0.01,0.014,102.0,101.0,101.0,13.3,1505.2,325.9,-0.7,1.8,2470.262,13.28,0.056,280.1
2022-01-22T08:13:03,42.805,6.029,-0.049,0.02,-0.033,101.0,101.0,100.0,13.4,1505.2,327.1,-0.7,1.8,2470.269,13.28,0.052,292.2
2022-01-22T08:16:03,42.805,6.029,-0.074,0.009,-0.025,102.0,102.0,101.0,13.4,1505.2,328.9,-0.8,1.8,2470.29,13.28,0.074,276.9
2022-01-22T08:19:03,42.805,6.029,-0.055,0.017,0.004,102.0,103.0,101.0,13.4,1505.2,327.0,-0.8,1.8,2470.316,13.28,0.057,287.2
2022-01-22T08:22:03,42.805,6.029,-0.032,0.016,0.011,102.0,102.0,100.0,13.4,1505.2,328.8,-0.8,1.8,2470.42,13.28,0.035,296.6
2022-01-22T08:25:03,42.805,6.029,-0.037,-0.004,-0.032,102.0,103.0,100.0,13.3,1505.2,324.1,-0.8,1.8,2470.362,13.28,0.037,263.8
2022-01-22T08:28:03,42.805,6.029,-0.043,0.017,-0.023,101.0,102.0,101.0,13.4,1505.2,326.7,-0.8,1.9,2470.417,13.28,0.046,291.6
2022-01-22T08:31:03,42.805,6.029,-0.047,0.006,-0.015,101.0,101.0,102.0,13.3,1505.2,330.0,-0.7,1.8,2470.46,13.28,0.047,277.3
2022-01-22T08:34:03,42.805,6.029,-0.052,0.035,0.008,102.0,102.0,101.0,13.4,1505.2,328.6,-0.8,1.8,2470.438,13.29,0.062,303.9
2022-01-22T08:37:03,42.805,6.029,-0.073,0.03,0.0,101.0,102.0,101.0,13.3,1505.2,330.7,-0.7,1.8,2470.502,13.29,0.078,292.3
2022-01-22T08:40:03,42.805,6.029,-0.061,0.011,-0.014,102.0,101.0,101.0,13.3,1505.2,326.4,-0.7,1.8,2470.514,13.29,0.061,280.2
2022-01-22T08:43:03,42.805,6.029,-0.046,0.021,0.006,101.0,102.0,100.0,13.3,1505.2,325.0,-0.7,1.8,2470.539,13.29,0.05,294.5
2022-01-22T08:46:03,42.805,6.029,-0.06,0.014,-0.013,103.0,102.0,101.0,13.4,1505.2,329.6,-0.7,1.8,2470.577,13.29,0.061,283.1
2022-01-22T08:49:03,42.805,6.029,-0.053,0.012,0.016,102.0,101.0,101.0,13.4,1505.2,328.8,-0.7,1.8,2470.569,13.29,0.054,282.8
2022-01-22T08:52:03,42.805,6.029,-0.054,0.034,0.011,102.0,102.0,100.0,13.3,1505.2,328.0,-0.8,1.8,2470.579,13.28,0.063,302.2
2022-01-22T08:55:03,42.805,6.029,-0.064,0.015,0.0,103.0,101.0,100.0,13.3,1505.2,327.2,-0.7,1.8,2470.606,13.29,0.065,283.2
2022-01-22T08:58:03,42.805,6.029,-0.056,0.009,-0.026,102.0,102.0,100.0,13.4,1505.2,323.4,-0.8,1.8,2470.611,13.28,0.056,279.1
2022-01-22T09:04:03,42.805,6.029,-0.042,0.013,0.028,102.0,102.0,101.0,13.4,1505.2,324.4,-0.8,1.8,2470.631,13.28,0.043,287.2
2022-01-22T09:07:03,42.805,6.029,-0.057,0.017,-0.031,103.0,101.0,101.0,13.3,1505.2,327.1,-0.8,1.8,2470.629,13.28,0.059,286.6
2022-01-22T09:10:03,42.805,6.029,-0.074,0.02,0.003,101.0,104.0,100.0,13.4,1505.2,324.8,-0.7,1.8,2470.651,13.28,0.076,285.1
2022-01-22T09:13:03,42.805,6.029,-0.059,0.004,-0.01,102.0,101.0,101.0,13.4,1505.2,330.8,-0.8,1.8,2470.672,13.28,0.059,273.9
2022-01-22T09:16:03,42.805,6.029,-0.037,0.052,0.012,103.0,102.0,102.0,13.4,1505.2,329.0,-0.8,1.8,2470.654,13.28,0.063,324.6
2022-01-22T09:19:03,42.805,6.029,-0.044,0.011,-0.037,101.0,101.0,102.0,13.4,1505.2,326.3,-0.7,1.8,2470.652,13.28,0.045,284.0
2022-01-22T09:22:03,42.805,6.029,-0.054,0.018,0.013,102.0,102.0,100.0,13.4,1505.2,324.2,-0.8,1.8,2470.704,13.28,0.056,288.4
2022-01-22T09:25:03,42.805,6.029,-0.044,0.026,-0.013,104.0,104.0,101.0,13.4,1505.2,324.2,-0.7,1.8,2470.674,13.28,0.051,300.6
2022-01-22T09:28:03,42.805,6.029,-0.043,-0.001,-0.015,101.0,102.0,103.0,13.3,1505.2,324.3,-0.8,1.8,2470.664,13.28,0.043,268.7
2022-01-22T09:31:03,42.805,6.029,-0.041,0.018,0.06,102.0,101.0,100.0,13.3,1505.2,329.2,-0.7,1.9,2470.712,13.28,0.044,293.7
2022-01-22T09:34:03,42.805,6.029,-0.045,0.001,0.004,103.0,102.0,101.0,13.4,1505.2,326.2,-0.7,1.8,2470.67,13.29,0.045,271.3
2022-01-22T09:37:03,42.805,6.029,-0.054,0.024,0.021,101.0,101.0,102.0,13.4,1505.2,324.0,-0.7,1.8,2470.694,13.29,0.059,294.0
2022-01-22T09:40:03,42.805,6.029,-0.036,0.005,-0.036,102.0,102.0,101.0,13.4,1505.2,326.7,-0.8,1.8,2470.707,13.28,0.036,277.9
2022-01-22T09:43:03,42.805,6.029,-0.039,-0.001,-0.013,102.0,102.0,100.0,13.4,1505.2,328.5,-0.7,1.8,2470.717,13.28,0.039,268.5
2022-01-22T09:46:03,42.805,6.029,-0.069,0.014,-0.008,102.0,101.0,101.0,13.4,1505.2,326.7,-0.7,1.8,2470.698,13.28,0.07,281.5
2022-01-22T09:49:03,42.805,6.029,-0.05,0.0,-0.013,103.0,102.0,101.0,13.4,1505.2,328.1,-0.8,1.8,2470.711,13.29,0.05,270.0
2022-01-22T09:52:03,42.805,6.029,-0.049,0.018,0.0,102.0,101.0,101.0,13.4,1505.2,327.5,-0.8,1.8,2470.753,13.29,0.052,290.2
2022-01-22T09:55:03,42.805,6.029,-0.062,0.018,-0.013,100.0,103.0,101.0,13.4,1505.2,328.7,-0.7,1.8,2470.754,13.29,0.064,286.2